Tracking 30685 objects as of 19-Jun-2025
HD Live streaming from Space Station
objects crossing your sky now

STARLINK-1169

Track STARLINK-1169 now!
10-day predictions
STARLINK-1169 is classified as:


NORAD ID: 45061
Int'l Code: 2020-006T
Perigee: 552.9 km
Apogee: 555.7 km
Inclination: 53.1 °
Period: 95.6 minutes
Semi major axis: 6925 km
RCS: Unknown
Launch date: January 29, 2020
Source: United States (US)
Launch site: AIR FORCE EASTERN TEST RANGE (AFETR)
Your satellite tracking list
Your tracking list is empty




NASA's NSSDC Master Catalog

Two Line Element Set (TLE):
1 45061U 20006T   25169.90412072  .00000255  00000-0  36032-4 0  9992
2 45061  53.0568  30.7968 0001990  86.4691 273.6526 15.06408663297043
Source of the keplerian elements: AFSPC